Year,Month,Day,Hour,Minute,Value (Times are PST for temperature in C)
2009,05,02,00,00,10.10
2009,05,02,00,01,10.10
2009,05,02,00,02,10.10
2009,05,02,00,03,10.10
2009,05,02,00,04,10.10
2009,05,02,00,05,10.10
2009,05,02,00,06,10.10
2009,05,02,00,07,10.10
2009,05,02,00,08,10.10
2009,05,02,00,09,10.10
2009,05,02,00,10,10.10
2009,05,02,00,11,10.00
2009,05,02,00,12,9.90
2009,05,02,00,13,9.90
2009,05,02,00,14,9.90
2009,05,02,00,15,9.80
2009,05,02,00,16,9.80
2009,05,02,00,17,9.80
2009,05,02,00,18,9.80
2009,05,02,00,19,9.80
2009,05,02,00,20,9.80
2009,05,02,00,21,9.80
2009,05,02,00,22,9.80
2009,05,02,00,23,9.80
2009,05,02,00,24,9.70
2009,05,02,00,25,9.70
2009,05,02,00,26,9.60
2009,05,02,00,27,9.60
2009,05,02,00,28,9.50
2009,05,02,00,29,9.40
2009,05,02,00,30,9.40
2009,05,02,00,31,9.40
2009,05,02,00,32,9.40
2009,05,02,00,33,9.50
2009,05,02,00,34,9.60
2009,05,02,00,35,9.60
2009,05,02,00,36,9.60
2009,05,02,00,37,9.60
2009,05,02,00,38,9.60
2009,05,02,00,39,9.70
2009,05,02,00,40,9.70
2009,05,02,00,41,9.80
2009,05,02,00,42,9.80
2009,05,02,00,43,9.80
2009,05,02,00,44,9.80
2009,05,02,00,45,9.80
2009,05,02,00,46,9.70
2009,05,02,00,47,9.70
2009,05,02,00,48,9.60
2009,05,02,00,49,9.60
2009,05,02,00,50,9.60
2009,05,02,00,51,9.60
2009,05,02,00,52,9.60
2009,05,02,00,53,9.60
2009,05,02,00,54,9.60
2009,05,02,00,55,9.50
2009,05,02,00,56,9.50
2009,05,02,00,57,9.50
2009,05,02,00,58,9.50
2009,05,02,00,59,9.50
2009,05,02,01,00,9.50
2009,05,02,01,01,9.60
2009,05,02,01,02,9.60
2009,05,02,01,03,9.60
2009,05,02,01,04,9.60
2009,05,02,01,05,9.60
2009,05,02,01,06,9.60
2009,05,02,01,07,9.60
2009,05,02,01,08,9.60
2009,05,02,01,09,9.60
2009,05,02,01,10,9.60
2009,05,02,01,11,9.60
2009,05,02,01,12,9.60
2009,05,02,01,13,9.70
2009,05,02,01,14,9.70
2009,05,02,01,15,9.80
2009,05,02,01,16,9.80
2009,05,02,01,17,9.80
2009,05,02,01,18,9.80
2009,05,02,01,19,9.80
2009,05,02,01,20,9.80
2009,05,02,01,21,9.80
2009,05,02,01,22,9.90
2009,05,02,01,23,9.90
2009,05,02,01,24,9.90
2009,05,02,01,25,9.90
2009,05,02,01,26,9.90
2009,05,02,01,27,9.90
2009,05,02,01,28,9.90
2009,05,02,01,29,10.00
2009,05,02,01,30,10.10
2009,05,02,01,31,10.10
2009,05,02,01,32,10.10
2009,05,02,01,33,10.10
2009,05,02,01,34,10.00
2009,05,02,01,35,10.00
2009,05,02,01,36,9.90
2009,05,02,01,37,9.90
2009,05,02,01,38,9.80
2009,05,02,01,39,9.80
2009,05,02,01,40,9.80
2009,05,02,01,41,9.70
2009,05,02,01,42,9.70
2009,05,02,01,43,9.70
2009,05,02,01,44,9.60
2009,05,02,01,45,9.60
2009,05,02,01,46,9.60
2009,05,02,01,47,9.60
2009,05,02,01,48,9.50
2009,05,02,01,49,9.50
2009,05,02,01,50,9.40
2009,05,02,01,51,9.40
2009,05,02,01,52,9.30
2009,05,02,01,53,9.30
2009,05,02,01,54,9.20
2009,05,02,01,55,9.10
2009,05,02,01,56,9.10
2009,05,02,01,57,9.10
2009,05,02,01,58,9.10
2009,05,02,01,59,9.00
2009,05,02,02,00,9.00
2009,05,02,02,01,9.00
2009,05,02,02,02,9.00
2009,05,02,02,03,9.00
2009,05,02,02,04,8.90
2009,05,02,02,05,8.90
2009,05,02,02,06,8.90
2009,05,02,02,07,8.90
2009,05,02,02,08,8.90
2009,05,02,02,09,9.00
2009,05,02,02,10,9.00
2009,05,02,02,11,9.10
2009,05,02,02,12,9.10
2009,05,02,02,13,9.10
2009,05,02,02,14,9.10
2009,05,02,02,15,9.10
2009,05,02,02,16,9.10
2009,05,02,02,17,9.10
2009,05,02,02,18,9.10
2009,05,02,02,19,9.10
2009,05,02,02,20,9.10
2009,05,02,02,21,9.10
2009,05,02,02,22,9.10
2009,05,02,02,23,9.10
2009,05,02,02,24,9.10
2009,05,02,02,25,9.10
2009,05,02,02,26,9.10
2009,05,02,02,27,9.10
2009,05,02,02,28,9.10
2009,05,02,02,29,9.10
2009,05,02,02,30,9.10
2009,05,02,02,31,9.10
2009,05,02,02,32,9.10
2009,05,02,02,33,9.10
2009,05,02,02,34,9.10
2009,05,02,02,35,9.10
2009,05,02,02,36,9.10
2009,05,02,02,37,9.10
2009,05,02,02,38,9.10
2009,05,02,02,39,9.10
2009,05,02,02,40,9.10
2009,05,02,02,41,9.00
2009,05,02,02,42,9.00
2009,05,02,02,43,9.00
2009,05,02,02,44,9.00
2009,05,02,02,45,9.00
2009,05,02,02,46,8.90
2009,05,02,02,47,8.90
2009,05,02,02,48,8.90
2009,05,02,02,49,8.90
2009,05,02,02,50,9.00
2009,05,02,02,51,9.00
2009,05,02,02,52,9.10
2009,05,02,02,53,9.20
2009,05,02,02,54,9.20
2009,05,02,02,55,9.30
2009,05,02,02,56,9.40
2009,05,02,02,57,9.50
2009,05,02,02,58,9.60
2009,05,02,02,59,9.60
2009,05,02,03,00,9.60
2009,05,02,03,01,9.60
2009,05,02,03,02,9.60
2009,05,02,03,03,9.60
2009,05,02,03,04,9.60
2009,05,02,03,05,9.60
2009,05,02,03,06,9.60
2009,05,02,03,07,9.60
2009,05,02,03,08,9.60
2009,05,02,03,09,9.60
2009,05,02,03,10,9.60
2009,05,02,03,11,9.60
2009,05,02,03,12,9.60
2009,05,02,03,13,9.50
2009,05,02,03,14,9.50
2009,05,02,03,15,9.40
2009,05,02,03,16,9.40
2009,05,02,03,17,9.40
2009,05,02,03,18,9.30
2009,05,02,03,19,9.30
2009,05,02,03,20,9.30
2009,05,02,03,21,9.30
2009,05,02,03,22,9.30
2009,05,02,03,23,9.30
2009,05,02,03,24,9.30
2009,05,02,03,25,9.30
2009,05,02,03,26,9.30
2009,05,02,03,27,9.30
2009,05,02,03,28,9.30
2009,05,02,03,29,9.30
2009,05,02,03,30,9.30
2009,05,02,03,31,9.30
2009,05,02,03,32,9.30
2009,05,02,03,33,9.30
2009,05,02,03,34,9.20
2009,05,02,03,35,9.20
2009,05,02,03,36,9.20
2009,05,02,03,37,9.20
2009,05,02,03,38,9.20
2009,05,02,03,39,9.10
2009,05,02,03,40,9.10
2009,05,02,03,41,9.00
2009,05,02,03,42,9.00
2009,05,02,03,43,8.90
2009,05,02,03,44,8.90
2009,05,02,03,45,8.80
2009,05,02,03,46,8.80
2009,05,02,03,47,8.70
2009,05,02,03,48,8.70
2009,05,02,03,49,8.70
2009,05,02,03,50,8.60
2009,05,02,03,51,8.60
2009,05,02,03,52,8.60
2009,05,02,03,53,8.60
2009,05,02,03,54,8.60
2009,05,02,03,55,8.60
2009,05,02,03,56,8.60
2009,05,02,03,57,8.60
2009,05,02,03,58,8.60
2009,05,02,03,59,8.60
2009,05,02,04,00,8.60
2009,05,02,04,01,8.60
2009,05,02,04,02,8.60
2009,05,02,04,03,8.60
2009,05,02,04,04,8.60
2009,05,02,04,05,8.70
2009,05,02,04,06,8.70
2009,05,02,04,07,8.70
2009,05,02,04,08,8.70
2009,05,02,04,09,8.70
2009,05,02,04,10,8.70
2009,05,02,04,11,8.70
2009,05,02,04,12,8.80
2009,05,02,04,13,8.80
2009,05,02,04,14,8.80
2009,05,02,04,15,8.90
2009,05,02,04,16,8.90
2009,05,02,04,17,8.90
2009,05,02,04,18,9.00
2009,05,02,04,19,9.00
2009,05,02,04,20,9.10
2009,05,02,04,21,9.10
2009,05,02,04,22,9.10
2009,05,02,04,23,9.10
2009,05,02,04,24,9.10
2009,05,02,04,25,9.20
2009,05,02,04,26,9.20
2009,05,02,04,27,9.20
2009,05,02,04,28,9.20
2009,05,02,04,29,9.20
2009,05,02,04,30,9.20
2009,05,02,04,31,9.30
2009,05,02,04,32,9.30
2009,05,02,04,33,9.30
2009,05,02,04,34,9.40
2009,05,02,04,35,9.50
2009,05,02,04,36,9.50
2009,05,02,04,37,9.50
2009,05,02,04,38,9.50
2009,05,02,04,39,9.50
2009,05,02,04,40,9.50
2009,05,02,04,41,9.50
2009,05,02,04,42,9.60
2009,05,02,04,43,9.60
2009,05,02,04,44,9.50
2009,05,02,04,45,9.50
2009,05,02,04,46,9.50
2009,05,02,04,47,9.40
2009,05,02,04,48,9.50
2009,05,02,04,49,9.40
2009,05,02,04,50,9.40
2009,05,02,04,51,9.40
2009,05,02,04,52,9.40
2009,05,02,04,53,9.40
2009,05,02,04,54,9.40
2009,05,02,04,55,9.40
2009,05,02,04,56,9.40
2009,05,02,04,57,9.40
2009,05,02,04,58,9.50
2009,05,02,04,59,9.60
2009,05,02,05,00,9.60
2009,05,02,05,01,9.60
2009,05,02,05,02,9.60
2009,05,02,05,03,9.60
2009,05,02,05,04,9.60
2009,05,02,05,05,9.70
2009,05,02,05,06,9.60
2009,05,02,05,07,9.60
2009,05,02,05,08,9.60
2009,05,02,05,09,9.60
2009,05,02,05,10,9.70
2009,05,02,05,11,9.80
2009,05,02,05,12,9.80
2009,05,02,05,13,10.00
2009,05,02,05,14,10.50
2009,05,02,05,15,10.70
2009,05,02,05,16,11.00
2009,05,02,05,17,11.30
2009,05,02,05,18,11.40
2009,05,02,05,19,11.40
2009,05,02,05,20,11.50
2009,05,02,05,21,11.70
2009,05,02,05,22,11.90
2009,05,02,05,23,12.10
2009,05,02,05,24,12.20
2009,05,02,05,25,12.30
2009,05,02,05,26,12.40
2009,05,02,05,27,12.50
2009,05,02,05,28,12.50
2009,05,02,05,29,12.60
2009,05,02,05,30,12.70
2009,05,02,05,31,12.70
2009,05,02,05,32,12.80
2009,05,02,05,33,12.80
2009,05,02,05,34,12.80
2009,05,02,05,35,12.90
2009,05,02,05,36,12.90
2009,05,02,05,37,13.00
2009,05,02,05,38,13.00
2009,05,02,05,39,13.00
2009,05,02,05,40,13.00
2009,05,02,05,41,12.90
2009,05,02,05,42,12.80
2009,05,02,05,43,12.70
2009,05,02,05,44,12.60
2009,05,02,05,45,12.50
2009,05,02,05,46,12.40
2009,05,02,05,47,12.30
2009,05,02,05,48,12.20
2009,05,02,05,49,12.10
2009,05,02,05,50,12.00
2009,05,02,05,51,11.90
2009,05,02,05,52,11.80
2009,05,02,05,53,11.80
2009,05,02,05,54,11.70
2009,05,02,05,55,11.60
2009,05,02,05,56,11.50
2009,05,02,05,57,11.40
2009,05,02,05,58,11.40
2009,05,02,05,59,11.30
2009,05,02,06,00,11.30
2009,05,02,06,01,11.20
2009,05,02,06,02,11.20
2009,05,02,06,03,11.20
2009,05,02,06,04,11.20
2009,05,02,06,05,11.10
2009,05,02,06,06,11.10
2009,05,02,06,07,11.10
2009,05,02,06,08,11.00
2009,05,02,06,09,11.00
2009,05,02,06,10,11.00
2009,05,02,06,11,10.90
2009,05,02,06,12,10.90
2009,05,02,06,13,10.90
2009,05,02,06,14,10.90
2009,05,02,06,15,10.90
2009,05,02,06,16,10.80
2009,05,02,06,17,10.80
2009,05,02,06,18,10.80
2009,05,02,06,19,10.80
2009,05,02,06,20,10.80
2009,05,02,06,21,10.80
2009,05,02,06,22,10.80
2009,05,02,06,23,10.80
2009,05,02,06,24,10.80
2009,05,02,06,25,10.80
2009,05,02,06,26,10.80
2009,05,02,06,27,10.80
2009,05,02,06,28,10.80
2009,05,02,06,29,10.80
2009,05,02,06,30,10.80
2009,05,02,06,31,10.70
2009,05,02,06,32,10.70
2009,05,02,06,33,10.70
2009,05,02,06,34,10.70
2009,05,02,06,35,10.60
2009,05,02,06,36,10.60
2009,05,02,06,37,10.60
2009,05,02,06,38,10.50
2009,05,02,06,39,10.50
2009,05,02,06,40,10.50
2009,05,02,06,41,10.50
2009,05,02,06,42,10.40
2009,05,02,06,43,10.40
2009,05,02,06,44,10.40
2009,05,02,06,45,10.40
2009,05,02,06,46,10.40
2009,05,02,06,47,10.40
2009,05,02,06,48,10.40
2009,05,02,06,49,10.40
2009,05,02,06,50,10.30
2009,05,02,06,51,10.30
2009,05,02,06,52,10.40
2009,05,02,06,53,10.40
2009,05,02,06,54,10.40
2009,05,02,06,55,10.40
2009,05,02,06,56,10.40
2009,05,02,06,57,10.40
2009,05,02,06,58,10.40
2009,05,02,06,59,10.40
2009,05,02,07,00,10.30
2009,05,02,07,01,10.30
2009,05,02,07,02,10.30
2009,05,02,07,03,10.30
2009,05,02,07,04,10.30
2009,05,02,07,05,10.20
2009,05,02,07,06,10.20
2009,05,02,07,07,10.20
2009,05,02,07,08,10.20
2009,05,02,07,09,10.20
2009,05,02,07,10,10.20
2009,05,02,07,11,10.20
2009,05,02,07,12,10.20
2009,05,02,07,13,10.20
2009,05,02,07,14,10.30
2009,05,02,07,15,10.30
2009,05,02,07,16,10.30
2009,05,02,07,17,10.30
2009,05,02,07,18,10.40
2009,05,02,07,19,10.40
2009,05,02,07,20,10.40
2009,05,02,07,21,10.40
2009,05,02,07,22,10.40
2009,05,02,07,23,10.40
2009,05,02,07,24,10.40
2009,05,02,07,25,10.40
2009,05,02,07,26,10.50
2009,05,02,07,27,10.50
2009,05,02,07,28,10.50
2009,05,02,07,29,10.50
2009,05,02,07,30,10.50
2009,05,02,07,31,10.60
2009,05,02,07,32,10.60
2009,05,02,07,33,10.60
2009,05,02,07,34,10.60
2009,05,02,07,35,10.60
2009,05,02,07,36,10.60
2009,05,02,07,37,10.60
2009,05,02,07,38,10.60
2009,05,02,07,39,10.70
2009,05,02,07,40,10.70
2009,05,02,07,41,10.70
2009,05,02,07,42,10.70
2009,05,02,07,43,10.70
2009,05,02,07,44,10.70
2009,05,02,07,45,10.70
2009,05,02,07,46,10.70
2009,05,02,07,47,10.70
2009,05,02,07,48,10.70
2009,05,02,07,49,10.70
2009,05,02,07,50,10.70
2009,05,02,07,51,10.70
2009,05,02,07,52,10.70
2009,05,02,07,53,10.70
2009,05,02,07,54,10.70
2009,05,02,07,55,10.70
2009,05,02,07,56,10.70
2009,05,02,07,57,10.70
2009,05,02,07,58,10.80
2009,05,02,07,59,10.80
2009,05,02,08,00,10.80
2009,05,02,08,01,10.80
2009,05,02,08,02,10.80
2009,05,02,08,03,10.80
2009,05,02,08,04,10.90
2009,05,02,08,05,10.90
2009,05,02,08,06,11.00
2009,05,02,08,07,11.00
2009,05,02,08,08,11.00
2009,05,02,08,09,11.10
2009,05,02,08,10,11.10
2009,05,02,08,11,11.00
2009,05,02,08,12,11.00
2009,05,02,08,13,11.00
2009,05,02,08,14,11.00
2009,05,02,08,15,11.00
2009,05,02,08,16,11.00
2009,05,02,08,17,11.00
2009,05,02,08,18,11.00
2009,05,02,08,19,11.00
2009,05,02,08,20,11.00
2009,05,02,08,21,11.00
2009,05,02,08,22,11.00
2009,05,02,08,23,10.90
2009,05,02,08,24,10.90
2009,05,02,08,25,10.90
2009,05,02,08,26,10.90
2009,05,02,08,27,10.90
2009,05,02,08,28,10.90
2009,05,02,08,29,10.90
2009,05,02,08,30,10.80
2009,05,02,08,31,10.80
2009,05,02,08,32,10.80
2009,05,02,08,33,10.80
2009,05,02,08,34,10.80
2009,05,02,08,35,10.80
2009,05,02,08,36,10.80
2009,05,02,08,37,10.80
2009,05,02,08,38,10.80
2009,05,02,08,39,10.80
2009,05,02,08,40,10.80
2009,05,02,08,41,10.80
2009,05,02,08,42,10.80
2009,05,02,08,43,10.80
2009,05,02,08,44,10.80
2009,05,02,08,45,10.90
2009,05,02,08,46,10.80
2009,05,02,08,47,10.80
2009,05,02,08,48,10.80
2009,05,02,08,49,10.80
2009,05,02,08,50,10.80
2009,05,02,08,51,10.80
2009,05,02,08,52,10.80
2009,05,02,08,53,10.80
2009,05,02,08,54,10.80
2009,05,02,08,55,10.80
2009,05,02,08,56,10.70
2009,05,02,08,57,10.70
2009,05,02,08,58,10.70
2009,05,02,08,59,10.70
2009,05,02,09,00,10.80
2009,05,02,09,01,10.80
2009,05,02,09,02,10.80
2009,05,02,09,03,10.80
2009,05,02,09,04,10.80
2009,05,02,09,05,10.90
2009,05,02,09,06,10.90
2009,05,02,09,07,10.90
2009,05,02,09,08,10.90
2009,05,02,09,09,10.90
2009,05,02,09,10,10.90
2009,05,02,09,11,11.00
2009,05,02,09,12,11.00
2009,05,02,09,13,11.00
2009,05,02,09,14,11.10
2009,05,02,09,15,11.10
2009,05,02,09,16,11.10
2009,05,02,09,17,11.10
2009,05,02,09,18,11.10
2009,05,02,09,19,11.10
2009,05,02,09,20,11.10
2009,05,02,09,21,11.10
2009,05,02,09,22,11.10
2009,05,02,09,23,11.00
2009,05,02,09,24,11.00
2009,05,02,09,25,10.90
2009,05,02,09,26,10.90
2009,05,02,09,27,10.90
2009,05,02,09,28,10.90
2009,05,02,09,29,10.90
2009,05,02,09,30,10.90
2009,05,02,09,31,10.80
2009,05,02,09,32,10.80
2009,05,02,09,33,10.80
2009,05,02,09,34,10.80
2009,05,02,09,35,10.80
2009,05,02,09,36,10.80
2009,05,02,09,37,10.80
2009,05,02,09,38,10.90
2009,05,02,09,39,10.90
2009,05,02,09,40,10.90
2009,05,02,09,41,10.90
2009,05,02,09,42,10.90
2009,05,02,09,43,10.90
2009,05,02,09,44,11.00
2009,05,02,09,45,11.00
2009,05,02,09,46,11.00
2009,05,02,09,47,11.10
2009,05,02,09,48,11.10
2009,05,02,09,49,11.10
2009,05,02,09,50,11.10
2009,05,02,09,51,11.20
2009,05,02,09,52,11.20
2009,05,02,09,53,11.20
2009,05,02,09,54,11.20
2009,05,02,09,55,11.20
2009,05,02,09,56,11.30
2009,05,02,09,57,11.30
2009,05,02,09,58,11.30
2009,05,02,09,59,11.30
2009,05,02,10,00,11.30
2009,05,02,10,01,11.30
2009,05,02,10,02,11.30
2009,05,02,10,03,11.30
2009,05,02,10,04,11.20
2009,05,02,10,05,11.20
2009,05,02,10,06,11.20
2009,05,02,10,07,11.20
2009,05,02,10,08,11.20
2009,05,02,10,09,11.20
2009,05,02,10,10,11.20
2009,05,02,10,11,11.20
2009,05,02,10,12,11.20
2009,05,02,10,13,11.20
2009,05,02,10,14,11.20
2009,05,02,10,15,11.30
2009,05,02,10,16,11.30
2009,05,02,10,17,11.30
2009,05,02,10,18,11.30
2009,05,02,10,19,11.30
2009,05,02,10,20,11.30
2009,05,02,10,21,11.30
2009,05,02,10,22,11.20
2009,05,02,10,23,11.20
2009,05,02,10,24,11.20
2009,05,02,10,25,11.20
2009,05,02,10,26,11.20
2009,05,02,10,27,11.20
2009,05,02,10,28,11.20
2009,05,02,10,29,11.30
2009,05,02,10,30,11.30
2009,05,02,10,31,11.30
2009,05,02,10,32,11.30
2009,05,02,10,33,11.30
2009,05,02,10,34,11.30
2009,05,02,10,35,11.30
2009,05,02,10,36,11.30
2009,05,02,10,37,11.30
2009,05,02,10,38,11.30
2009,05,02,10,39,11.30
2009,05,02,10,40,11.30
2009,05,02,10,41,11.30
2009,05,02,10,42,11.30
2009,05,02,10,43,11.30
2009,05,02,10,44,11.30
2009,05,02,10,45,11.30
2009,05,02,10,46,11.30
2009,05,02,10,47,11.20
2009,05,02,10,48,11.20
2009,05,02,10,49,11.20
2009,05,02,10,50,11.20
2009,05,02,10,51,11.20
2009,05,02,10,52,11.20
2009,05,02,10,53,11.20
2009,05,02,10,54,11.20
2009,05,02,10,55,11.20
2009,05,02,10,56,11.20
2009,05,02,10,57,11.30
2009,05,02,10,58,11.30
2009,05,02,10,59,11.30
2009,05,02,11,00,11.30
2009,05,02,11,01,11.30
2009,05,02,11,02,11.30
2009,05,02,11,03,11.30
2009,05,02,11,04,11.30
2009,05,02,11,05,11.30
2009,05,02,11,06,11.30
2009,05,02,11,07,11.30
2009,05,02,11,08,11.30
2009,05,02,11,09,11.30
2009,05,02,11,10,11.30
2009,05,02,11,11,11.30
2009,05,02,11,12,11.30
2009,05,02,11,13,11.30
2009,05,02,11,14,11.40
2009,05,02,11,15,11.30
2009,05,02,11,16,11.30
2009,05,02,11,17,11.30
2009,05,02,11,18,11.30
2009,05,02,11,19,11.30
2009,05,02,11,20,11.40
2009,05,02,11,21,11.40
2009,05,02,11,22,11.40
2009,05,02,11,23,11.40
2009,05,02,11,24,11.40
2009,05,02,11,25,11.40
2009,05,02,11,26,11.40
2009,05,02,11,27,11.40
2009,05,02,11,28,11.40
2009,05,02,11,29,11.40
2009,05,02,11,30,11.50
2009,05,02,11,31,11.50
2009,05,02,11,32,11.40
2009,05,02,11,33,11.40
2009,05,02,11,34,11.50
2009,05,02,11,35,11.50
2009,05,02,11,36,11.50
2009,05,02,11,37,11.50
2009,05,02,11,38,11.50
2009,05,02,11,39,11.50
2009,05,02,11,40,11.50
2009,05,02,11,41,11.50
2009,05,02,11,42,11.60
2009,05,02,11,43,11.60
2009,05,02,11,44,11.60
2009,05,02,11,45,11.60
2009,05,02,11,46,11.60
2009,05,02,11,47,11.60
2009,05,02,11,48,11.60
2009,05,02,11,49,11.60
2009,05,02,11,50,11.70
2009,05,02,11,51,11.70
2009,05,02,11,52,11.70
2009,05,02,11,53,11.70
2009,05,02,11,54,11.70
2009,05,02,11,55,11.70
2009,05,02,11,56,11.80
2009,05,02,11,57,11.80
2009,05,02,11,58,11.80
2009,05,02,11,59,11.90
2009,05,02,12,00,11.90
2009,05,02,12,01,11.90
2009,05,02,12,02,12.00
2009,05,02,12,03,12.00
2009,05,02,12,04,12.00
2009,05,02,12,05,12.10
2009,05,02,12,06,12.10
2009,05,02,12,07,12.10
2009,05,02,12,08,12.10
2009,05,02,12,09,12.10
2009,05,02,12,10,12.20
2009,05,02,12,11,12.20
2009,05,02,12,12,12.20
2009,05,02,12,13,12.20
2009,05,02,12,14,12.20
2009,05,02,12,15,12.30
2009,05,02,12,16,12.30
2009,05,02,12,17,12.30
2009,05,02,12,18,12.30
2009,05,02,12,19,12.30
2009,05,02,12,20,12.30
2009,05,02,12,21,12.40
2009,05,02,12,22,12.40
2009,05,02,12,23,12.40
2009,05,02,12,24,12.40
2009,05,02,12,25,12.40
2009,05,02,12,26,12.40
2009,05,02,12,27,12.40
2009,05,02,12,28,12.50
2009,05,02,12,29,12.50
2009,05,02,12,30,12.60
2009,05,02,12,31,12.60
2009,05,02,12,32,12.60
2009,05,02,12,33,12.70
2009,05,02,12,34,12.70
2009,05,02,12,35,12.70
2009,05,02,12,36,12.70
2009,05,02,12,37,12.60
2009,05,02,12,38,12.60
2009,05,02,12,39,12.60
2009,05,02,12,40,12.70
2009,05,02,12,41,12.70
2009,05,02,12,42,12.60
2009,05,02,12,43,12.60
2009,05,02,12,44,12.60
2009,05,02,12,45,12.60
2009,05,02,12,46,12.60
2009,05,02,12,47,12.60
2009,05,02,12,48,12.60
2009,05,02,12,49,12.60
2009,05,02,12,50,12.60
2009,05,02,12,51,12.60
2009,05,02,12,52,12.60
2009,05,02,12,53,12.60
2009,05,02,12,54,12.60
2009,05,02,12,55,12.60
2009,05,02,12,56,12.70
2009,05,02,12,57,12.60
2009,05,02,12,58,12.50
2009,05,02,12,59,12.50
2009,05,02,13,00,12.50
2009,05,02,13,01,12.40
2009,05,02,13,02,12.40
2009,05,02,13,03,12.40
2009,05,02,13,04,12.40
2009,05,02,13,05,12.40
2009,05,02,13,06,12.40
2009,05,02,13,07,12.40
2009,05,02,13,08,12.40
2009,05,02,13,09,12.50
2009,05,02,13,10,12.50
2009,05,02,13,11,12.60
2009,05,02,13,12,12.60
2009,05,02,13,13,12.60
2009,05,02,13,14,12.70
2009,05,02,13,15,12.70
2009,05,02,13,16,12.60
2009,05,02,13,17,12.60
2009,05,02,13,18,12.60
2009,05,02,13,19,12.60
2009,05,02,13,20,12.50
2009,05,02,13,21,12.50
2009,05,02,13,22,12.50
2009,05,02,13,23,12.50
2009,05,02,13,24,12.50
2009,05,02,13,25,12.50
2009,05,02,13,26,12.50
2009,05,02,13,27,12.50
2009,05,02,13,28,12.60
2009,05,02,13,29,12.50
2009,05,02,13,30,12.50
2009,05,02,13,31,12.50
2009,05,02,13,32,12.50
2009,05,02,13,33,12.50
2009,05,02,13,34,12.50
2009,05,02,13,35,12.50
2009,05,02,13,36,12.50
2009,05,02,13,37,12.50
2009,05,02,13,38,12.60
2009,05,02,13,39,12.60
2009,05,02,13,40,12.50
2009,05,02,13,41,12.50
2009,05,02,13,42,12.50
2009,05,02,13,43,12.60
2009,05,02,13,44,12.60
2009,05,02,13,45,12.60
2009,05,02,13,46,12.60
2009,05,02,13,47,12.60
2009,05,02,13,48,12.70
2009,05,02,13,49,12.70
2009,05,02,13,50,12.70
2009,05,02,13,51,12.70
2009,05,02,13,52,12.70
2009,05,02,13,53,12.70
2009,05,02,13,54,12.80
2009,05,02,13,55,12.80
2009,05,02,13,56,12.80
2009,05,02,13,57,12.80
2009,05,02,13,58,12.80
2009,05,02,13,59,12.90
2009,05,02,14,00,12.90
2009,05,02,14,01,12.90
2009,05,02,14,02,12.90
2009,05,02,14,03,13.00
2009,05,02,14,04,13.00
2009,05,02,14,05,13.10
2009,05,02,14,06,13.10
2009,05,02,14,07,13.20
2009,05,02,14,08,13.20
2009,05,02,14,09,13.30
2009,05,02,14,10,13.30
2009,05,02,14,11,13.20
2009,05,02,14,12,13.20
2009,05,02,14,13,13.20
2009,05,02,14,14,13.30
2009,05,02,14,15,13.30
2009,05,02,14,16,13.30
2009,05,02,14,17,13.30
2009,05,02,14,18,13.40
2009,05,02,14,19,13.40
2009,05,02,14,20,13.40
2009,05,02,14,21,13.40
2009,05,02,14,22,13.40
2009,05,02,14,23,13.40
2009,05,02,14,24,13.40
2009,05,02,14,25,13.30
2009,05,02,14,26,13.30
2009,05,02,14,27,13.30
2009,05,02,14,28,13.40
2009,05,02,14,29,13.30
2009,05,02,14,30,13.30
2009,05,02,14,31,13.40
2009,05,02,14,32,13.40
2009,05,02,14,33,13.40
2009,05,02,14,34,13.40
2009,05,02,14,35,13.50
2009,05,02,14,36,13.50
2009,05,02,14,37,13.50
2009,05,02,14,38,13.60
2009,05,02,14,39,13.60
2009,05,02,14,40,13.60
2009,05,02,14,41,13.60
2009,05,02,14,42,13.70
2009,05,02,14,43,13.70
2009,05,02,14,44,13.80
2009,05,02,14,45,13.80
2009,05,02,14,46,13.80
2009,05,02,14,47,13.90
2009,05,02,14,48,13.90
2009,05,02,14,49,13.90
2009,05,02,14,50,13.90
2009,05,02,14,51,14.00
2009,05,02,14,52,14.00
2009,05,02,14,53,14.10
2009,05,02,14,54,14.10
2009,05,02,14,55,14.10
2009,05,02,14,56,14.10
2009,05,02,14,57,14.10
2009,05,02,14,58,14.10
2009,05,02,14,59,14.10
2009,05,02,15,00,14.10
2009,05,02,15,01,14.10
2009,05,02,15,02,14.10
2009,05,02,15,03,14.10
2009,05,02,15,04,14.00
2009,05,02,15,05,14.00
2009,05,02,15,06,14.00
2009,05,02,15,07,13.90
2009,05,02,15,08,13.90
2009,05,02,15,09,13.90
2009,05,02,15,10,13.90
2009,05,02,15,11,13.90
2009,05,02,15,12,13.90
2009,05,02,15,13,13.90
2009,05,02,15,14,13.80
2009,05,02,15,15,13.80
2009,05,02,15,16,13.80
2009,05,02,15,17,13.90
2009,05,02,15,18,13.90
2009,05,02,15,19,13.90
2009,05,02,15,20,13.90
2009,05,02,15,21,13.90
2009,05,02,15,22,13.90
2009,05,02,15,23,13.90
2009,05,02,15,24,13.90
2009,05,02,15,25,13.90
2009,05,02,15,26,13.90
2009,05,02,15,27,13.90
2009,05,02,15,28,13.90
2009,05,02,15,29,13.90
2009,05,02,15,30,13.90
2009,05,02,15,31,13.90
2009,05,02,15,32,13.90
2009,05,02,15,33,13.90
2009,05,02,15,34,13.90
2009,05,02,15,35,13.90
2009,05,02,15,36,13.90
2009,05,02,15,37,13.90
2009,05,02,15,38,13.90
2009,05,02,15,39,14.00
2009,05,02,15,40,14.00
2009,05,02,15,41,14.00
2009,05,02,15,42,13.90
2009,05,02,15,43,13.90
2009,05,02,15,44,13.90
2009,05,02,15,45,13.90
2009,05,02,15,46,13.80
2009,05,02,15,47,13.70
2009,05,02,15,48,13.70
2009,05,02,15,49,13.70
2009,05,02,15,50,13.60
2009,05,02,15,51,13.60
2009,05,02,15,52,13.60
2009,05,02,15,53,13.50
2009,05,02,15,54,13.50
2009,05,02,15,55,13.40
2009,05,02,15,56,13.30
2009,05,02,15,57,13.30
2009,05,02,15,58,13.20
2009,05,02,15,59,13.20
2009,05,02,16,00,13.10
2009,05,02,16,01,13.10
2009,05,02,16,02,13.00
2009,05,02,16,03,13.00
2009,05,02,16,04,12.90
2009,05,02,16,05,12.90
2009,05,02,16,06,12.90
2009,05,02,16,07,12.80
2009,05,02,16,08,12.70
2009,05,02,16,09,12.70
2009,05,02,16,10,12.60
2009,05,02,16,11,12.60
2009,05,02,16,12,12.60
2009,05,02,16,13,12.50
2009,05,02,16,14,12.50
2009,05,02,16,15,12.40
2009,05,02,16,16,12.30
2009,05,02,16,17,12.20
2009,05,02,16,18,12.10
2009,05,02,16,19,12.00
2009,05,02,16,20,11.90
2009,05,02,16,21,11.90
2009,05,02,16,22,11.80
2009,05,02,16,23,11.80
2009,05,02,16,24,11.80
2009,05,02,16,25,11.80
2009,05,02,16,26,11.80
2009,05,02,16,27,11.80
2009,05,02,16,28,11.80
2009,05,02,16,29,11.80
2009,05,02,16,30,11.80
2009,05,02,16,31,11.80
2009,05,02,16,32,11.80
2009,05,02,16,33,11.80
2009,05,02,16,34,11.80
2009,05,02,16,35,11.80
2009,05,02,16,36,11.80
2009,05,02,16,37,11.80
2009,05,02,16,38,11.80
2009,05,02,16,39,11.90
2009,05,02,16,40,11.90
2009,05,02,16,41,11.90
2009,05,02,16,42,11.90
2009,05,02,16,43,11.80
2009,05,02,16,44,11.80
2009,05,02,16,45,11.80
2009,05,02,16,46,11.80
2009,05,02,16,47,11.80
2009,05,02,16,48,11.80
2009,05,02,16,49,11.70
2009,05,02,16,50,11.70
2009,05,02,16,51,11.70
2009,05,02,16,52,11.60
2009,05,02,16,53,11.60
2009,05,02,16,54,11.60
2009,05,02,16,55,11.60
2009,05,02,16,56,11.70
2009,05,02,16,57,11.70
2009,05,02,16,58,11.70
2009,05,02,16,59,11.70
2009,05,02,17,00,11.70
2009,05,02,17,01,11.70
2009,05,02,17,02,11.70
2009,05,02,17,03,11.70
2009,05,02,17,04,11.70
2009,05,02,17,05,11.70
2009,05,02,17,06,11.70
2009,05,02,17,07,11.80
2009,05,02,17,08,11.80
2009,05,02,17,09,11.80
2009,05,02,17,10,11.70
2009,05,02,17,11,11.80
2009,05,02,17,12,11.80
2009,05,02,17,13,11.80
2009,05,02,17,14,11.80
2009,05,02,17,15,11.80
2009,05,02,17,16,11.80
2009,05,02,17,17,11.80
2009,05,02,17,18,11.90
2009,05,02,17,19,11.90
2009,05,02,17,20,11.90
2009,05,02,17,21,11.90
2009,05,02,17,22,11.90
2009,05,02,17,23,11.90
2009,05,02,17,24,11.90
2009,05,02,17,25,11.90
2009,05,02,17,26,11.90
2009,05,02,17,27,12.00
2009,05,02,17,28,12.00
2009,05,02,17,29,12.10
2009,05,02,17,30,12.10
2009,05,02,17,31,12.10
2009,05,02,17,32,12.20